SCP
0 0 0 0 0 0 0 0 0 0 0 0 0 0 0 0 0 0 0 0 0 0 0 0 0 0 0 0 0 0 0 0 0 0 0 0 0 0 0 0 0 0 0
0 0 0 0 0 0 0 0 0 0 0 0 0 0 0 0 0 0 0 0 0 0 0 0 0 0 0 0 0 0 0 0 0 0 0 0 0 0 0 0 0 0 0
0 0 0 0 0 0 0 0 0 0 0 0 0 0 0 0 0 0 0 0 0 0 0 0 0 0 0 0 0 0 0 0 0 0 0 0 0 0 0 0 0 0 0
0 0 0 0 0 0 0 0 0 0 0 0 0 0 0 0 0 0 0 0 0 0 0 0 0 0 0 0 0 0 0 0 0 0 0 0 0 0 0 0 0 0 0
0 0 0 0 0 0 0 0 0 0 0 0 0 0 0 0 0 0 0 0 0 0 0 0 0 0 0 0 0 0 0 0 0 0 0 0 0 0 0 0 0 0 -0
0 0 0 0 0 0 0 0 0 0 0 0 0 0 0 0 0 0 0 0 0 0 0 0 0 0 0 0 0 0 0 0 0 0 0 0 0 0 0 0 0 0 -0
0 0 0 0 0 0 0 0 0 0 0 0 0 0 0 0 0 0 0 0 0 0 0 0 0 0 0 0 0 0 0 0 0 0 0 0 0 0 0 0 0 0 0
0 0 0 0 0 0 0 0 0 0 0 0 0 0 0 0 0 0 0 0 0 0 0 0 0 0 0 0 0 0 0 0 0 0 0 0 0 0 0 0 0 0 0
0 0 0 0 0 0 0 0 0 0 0 0 0 0 0 0 0 0 0 0 0 0 0 0 0 0 0 0 0 0 0 0 0 0 0 0 0 0 0 0 0 0 0
0 0 0 0 0 0 0 0 0 0 0 0 0 0 0 0 0 0 0 0 0 0 0 0 0 0 0 0 0 0 0 0 0 0 0 0 0 0 0 0 0 0 0
0 0 0 0 0 0 0 0 0 0 0 0 0 0 0 0 0 0 0 0 0 0 0 0 0 0 0 0 0 0 0 0 0 0 0 0 0 0 0 0 0 0 0
0 0 0 0 0 0 0 0 0 0 0 0 0 0 0 0 0 0 0 0 0 0 0 0 0 0 0 0 0 0 0 0 0 0 0 0 0 0 0 0 0 0 0
0 0 0 0 0 0 0 0 0 0 0 0 0 0 0 0 0 0 0 0 0 0 0 0 0 0 0 0 0 0 0 0 0 0 0 0 0 0 0 0 0 0 0
0 0 0 0 0 0 0 0 0 0 0 0 0 0 0 0 0 0 0 0 0 0 0 0 0 0 0 0 0 0 0 0 0 0 0 0 0 0 0 0 0 0 0
0 0 0 0 0 0 0 0 0 0 0 0 0 0 0 0 0 0 0 0 0 0 0 0 0 0 0 0 0 0 0 0 0 0 0 0 0 0 0 0 0 0 0
0 0 0 0 0 0 0 0 0 0 0 0 0 0 0 0 0 0 0 0 0 0 0 0 0 0 0 0 0 0 0 0 0 0 0 0 0 0 0 0 0 0 0
0 0 0 0 0 0 0 0 0 0 0 0 0 0 0 0 0 0 0 0 0 0 0 0 0 0 0 0 0 0 0 0 0 0 0 0 0 0 0 0 0 0 0
0 0 0 0 0 0 0 0 0 0 0 0 0 0 0 0 0 0 0 0 0 0 0 0 0 0 0 0 0 0 0 0 0 0 0 0 0 0 0 0 0 0 0
0 0 0 0 0 0 0 0 0 0 0 0 0 0 0 0 0 0 0 0 0 0 0 0 0 0 0 0 0 0 0 0 0 0 0 0 0 0 0 0 0 0 0
0 0 0 0 0 0 0 0 0 0 0 0 0 0 0 0 0 0 0 0 0 0 0 0 0 0 0 0 0 0 0 0 0 0 0 0 0 0 0 0 0 0 0
0 0 0 0 0 0 0 0 0 0 0 0 0 0 0 0 0 0 0 0 0 0 0 0 0 0 0 0 0 0 0 0 0 0 0 0 0 0 0 0 0 0 0
0 0 0 0 0 0 0 0 0 0 0 0 0 0 0 0 0 0 0 0 0 0 0 0 0 0 0 0 0 0 0 0 0 0 0 0 0 0 0 0 0 0 0
0 0 0 0 0 0 0 0 0 0 0 0 0 0 0 0 0 0 0 0 0 0 0 0 0 0 0 0 0 0 0 0 0 0 0 0 0 0 0 0 0 0 0
0 0 0 0 0 0 0 0 0 0 0 0 0 0 0 0 0 0 0 0 0 0 0 0 0 0 0 0 0 0 0 0 0 0 0 0 0 0 0 0 0 0 0
0 0 0 0 0 0 0 0 0 0 0 0 0 0 0 0 0 0 0 0 0 0 0 0 0 0 0 0 0 0 0 0 0 0 0 0 0 0 0 0 0 0 0
0 0 0 0 0 0 0 0 0 0 0 0 0 0 0 0 0 0 0 0 0 0 0 0 0 0 0 0 0 0 0 0 0 0 0 0 0 0 0 0 0 0 0
Wind_Speed_500mb
30 39 47 48 52 58 59 60 58 56 50 46 46 47 47 45 43 41 37 34 31 29 26 24 21 20 20 23 27 31 36 40 52 71 71 70 72 73 72 73 73 72 72
23 25 30 34 36 38 40 42 44 44 46 46 46 45 44 43 42 40 36 33 30 27 24 23 19 19 21 27 33 37 42 44 52 67 76 78 79 79 81 83 81 79 80
27 24 22 21 24 28 30 34 38 42 43 44 45 45 47 46 43 40 37 33 31 29 26 24 22 26 29 33 38 44 48 53 57 64 80 83 87 86 89 90 91 88 85
36 34 32 32 33 32 33 36 38 41 44 45 46 49 51 48 45 42 39 37 34 32 30 29 29 31 34 39 46 52 58 64 66 70 78 89 91 92 92 95 102 96 99
42 38 39 40 40 41 40 40 43 47 48 49 51 54 54 51 48 47 46 43 41 39 38 38 38 39 40 45 53 59 64 72 76 79 85 87 93 95 94 94 97 103 107
49 41 37 41 45 48 48 49 50 53 54 55 57 58 57 56 54 55 51 47 46 45 44 45 47 47 49 55 61 68 72 77 82 81 89 89 94 92 92 91 93 98 108
48 50 50 50 52 52 54 56 56 58 59 59 61 61 59 57 57 56 55 50 50 48 49 50 52 54 59 64 69 79 82 80 82 84 90 92 94 89 90 93 87 90 102
53 56 56 58 62 61 61 62 61 61 62 61 61 61 60 58 58 58 57 55 55 53 53 55 58 62 66 72 83 88 90 87 85 86 88 96 89 89 82 87 92 104 117
58 56 54 55 56 57 57 57 60 64 64 63 61 59 58 57 58 59 58 57 56 56 56 58 61 66 71 84 90 93 96 96 94 94 93 94 92 89 84 85 89 78 110
51 49 49 48 49 51 52 52 53 56 58 59 58 57 55 53 53 52 53 54 57 60 60 63 75 82 85 81 84 85 94 93 91 92 92 92 90 91 85 75 82 81 77
45 42 40 39 38 38 40 41 41 44 47 49 49 47 46 47 48 51 53 54 56 58 69 78 75 75 77 78 76 76 78 79 83 86 91 94 95 90 83 72 64 72 81
34 33 29 27 25 26 26 28 30 32 36 38 38 38 40 41 44 47 51 52 57 62 62 65 68 69 69 66 65 64 65 67 73 79 86 93 94 91 85 74 68 71 80
21 21 20 18 17 17 17 20 22 25 28 31 33 33 35 35 35 41 43 45 46 49 52 55 58 60 60 61 59 61 62 63 68 74 85 91 86 90 86 85 82 82 85
13 14 11 9 9 10 12 13 14 16 18 20 22 23 25 27 28 31 34 38 39 41 46 48 49 51 55 59 62 63 60 60 62 71 81 87 91 92 88 78 84 80 84
12 12 9 7 7 7 6 7 9 11 11 13 16 19 21 22 24 25 31 35 38 41 45 46 50 54 59 63 66 66 68 70 73 74 79 86 89 91 93 79 77 80 80
15 16 16 15 13 11 11 10 12 11 11 13 16 19 20 21 23 27 30 32 34 37 42 47 52 56 61 65 69 72 72 73 75 77 80 83 86 87 91 88 79 79 84
13 18 19 20 17 16 16 15 13 16 15 19 19 20 21 24 25 27 29 31 33 38 43 48 52 56 60 64 68 71 76 76 76 78 79 80 78 80 79 81 80 79 82
16 19 18 17 14 11 8 8 6 5 7 10 12 14 18 22 26 29 31 34 35 36 43 47 51 54 59 64 67 71 75 77 78 80 82 83 81 79 83 81 80 81 83
9 10 11 12 12 12 12 12 11 11 10 13 16 18 22 24 28 29 33 38 42 44 46 50 52 56 60 65 69 74 77 79 80 82 85 86 84 77 79 81 81 83 83
11 10 10 12 14 15 16 17 18 17 17 18 21 25 28 30 33 35 37 41 45 49 52 56 58 61 64 68 72 75 80 82 85 85 89 91 89 85 83 83 80 82 82
17 16 16 16 18 19 19 20 22 23 23 23 24 27 32 37 40 42 44 46 50 54 57 60 63 65 68 72 74 76 81 86 89 92 95 100 98 95 89 85 83 83 82
24 23 24 23 24 24 24 26 26 26 27 28 28 27 32 34 38 42 45 48 51 53 56 60 63 65 68 71 73 77 83 90 94 97 103 104 103 100 94 91 90 87 83
26 27 28 28 28 29 29 29 29 30 30 31 33 34 34 37 40 43 47 50 53 56 57 58 61 67 70 73 74 76 83 88 93 99 105 106 103 97 91 92 94 91 86
31 31 31 30 31 32 32 32 31 33 34 35 36 37 39 41 45 48 50 53 55 56 58 61 63 67 72 76 78 78 81 86 94 103 102 100 100 97 89 89 92 94 91
36 35 34 35 35 36 37 37 36 36 36 38 39 41 42 44 46 48 51 54 57 60 61 64 65 65 72 79 80 83 89 89 93 92 98 99 93 87 84 87 91 91 92
38 38 38 38 39 40 42 42 42 42 42 42 42 43 44 46 48 51 53 56 59 61 64 66 68 65 71 82 84 89 90 90 94 89 93 85 83 79 75 76 75 74 80
Wind_Direction_500mb
251 239 241 242 238 238 241 241 240 238 237 232 228 224 221 221 223 228 231 233 238 243 248 255 266 278 296 305 311 315 317 314 306 315 319 320 319 319 318 316 314 313 311
284 260 246 240 236 233 231 229 229 229 228 226 222 218 220 224 226 227 229 231 233 237 243 254 266 282 302 310 313 315 318 317 312 314 316 319 318 318 316 314 314 313 311
292 284 264 243 234 232 235 237 236 232 228 223 221 222 225 225 226 227 227 231 235 240 248 258 272 290 304 308 310 312 313 313 313 311 313 316 316 317 316 314 312 310 309
290 274 264 259 250 246 245 243 238 235 231 230 229 228 227 228 229 230 233 235 240 246 253 263 277 290 298 304 307 310 310 309 310 309 310 313 314 316 314 314 311 311 309
298 286 275 263 258 254 252 249 244 242 239 237 235 233 232 234 236 236 237 239 243 248 255 266 275 282 290 298 302 306 306 306 306 308 308 310 312 314 314 314 311 310 309
282 284 281 273 263 258 257 255 250 247 245 244 240 238 238 238 239 241 241 243 247 252 258 265 273 281 289 294 298 300 302 304 303 304 305 306 309 310 310 308 307 308 307
281 278 277 273 266 261 259 258 254 250 248 245 241 240 241 242 244 246 248 249 254 259 265 269 275 283 288 292 294 297 299 300 301 303 303 304 306 308 307 306 305 301 297
277 272 265 264 263 258 255 253 252 249 248 246 244 242 242 242 244 247 252 255 259 264 270 277 283 288 292 293 296 300 300 299 298 298 300 301 302 304 301 298 297 296 295
273 269 264 261 260 261 260 256 250 247 246 244 243 243 242 244 247 249 253 259 266 272 277 282 286 289 292 294 298 297 296 298 301 304 302 301 300 299 297 296 293 293 295
270 268 266 264 261 260 259 257 253 246 244 241 240 240 242 245 250 256 261 267 272 276 281 287 291 295 295 293 295 296 296 300 302 301 300 301 302 301 300 291 290 280 282
271 269 268 268 267 265 261 257 252 245 241 239 240 242 246 251 256 261 265 268 272 277 284 286 284 286 288 291 294 296 299 303 305 305 306 306 307 307 305 301 286 273 273
276 273 270 269 267 261 256 252 248 243 239 239 241 244 248 251 256 262 267 271 274 276 277 281 285 290 295 299 303 308 309 308 306 306 305 307 309 308 306 301 289 280 273
279 273 270 265 260 254 247 241 233 232 233 236 238 241 247 253 260 266 272 277 283 287 291 294 301 304 308 311 314 315 316 313 312 308 308 308 306 303 301 297 295 291 287
290 275 261 252 246 246 248 256 254 253 251 251 255 259 264 270 276 282 288 293 297 299 300 304 307 312 314 317 321 324 322 317 311 307 306 306 305 302 300 297 295 291 286
323 312 306 295 297 290 283 288 286 285 289 292 299 299 299 299 303 308 310 313 313 313 313 317 320 323 324 326 327 328 328 326 323 319 313 310 307 304 300 299 294 292 285
351 344 351 357 1 358 357 347 339 334 326 326 323 324 325 321 318 317 317 320 326 330 325 327 326 327 328 328 328 328 329 329 327 321 316 312 308 304 301 300 294 289 285
316 318 330 335 340 338 338 332 325 316 305 301 304 314 322 324 330 337 336 337 338 332 326 326 327 329 329 329 328 327 327 328 326 321 315 310 300 295 292 290 290 288 285
335 323 332 323 322 320 319 311 298 299 307 315 321 324 327 331 336 335 335 336 333 329 328 330 331 331 329 327 326 325 325 325 325 322 318 312 305 296 291 287 286 284 285
339 342 341 337 327 333 327 322 321 326 333 331 330 332 333 338 336 339 338 335 335 334 332 331 331 330 327 325 325 323 323 322 321 321 321 319 313 299 290 287 285 282 283
321 317 315 312 317 315 314 317 319 325 333 333 331 332 331 332 338 339 338 335 333 332 331 329 330 329 328 328 325 323 320 321 321 319 319 319 317 310 295 289 286 283 280
309 306 308 310 311 308 313 314 316 322 326 330 334 333 333 335 335 334 334 335 333 332 331 328 328 327 328 327 325 323 321 320 321 320 318 316 308 301 298 291 286 283 281
296 304 301 304 303 304 308 310 314 316 321 325 328 332 329 328 327 329 331 332 331 330 329 326 325 327 329 329 328 326 324 323 322 319 312 305 299 295 293 289 285 282 281
296 294 295 296 297 300 304 307 310 313 317 321 324 325 326 327 329 330 331 331 330 330 330 326 325 328 331 330 329 327 326 324 322 314 305 299 295 287 288 284 284 282 279
299 297 294 293 295 297 301 304 306 311 314 316 319 322 324 325 327 329 328 328 328 328 330 328 326 328 331 331 330 330 328 325 323 314 309 302 296 291 285 284 283 283 283
299 298 297 295 295 297 298 301 303 305 307 311 314 317 319 320 322 324 326 327 327 328 330 333 331 329 332 332 331 336 333 326 323 318 310 308 302 299 293 286 279 275 275
294 295 295 293 292 293 294 295 297 300 303 306 309 311 313 317 320 323 325 326 327 327 330 332 334 332 333 335 338 338 332 326 327 316 312 308 301 295 292 289 287 277 271
Wind_Speed_850mb
30 39 47 48 52 58 59 60 58 56 50 46 46 47 47 45 43 41 37 34 31 29 26 24 21 20 20 23 27 31 36 40 52 71 71 70 72 73 72 73 73 72 72
23 25 30 34 36 38 40 42 44 44 46 46 46 45 44 43 42 40 36 33 30 27 24 23 19 19 21 27 33 37 42 44 52 67 76 78 79 79 81 83 81 79 80
27 24 22 21 24 28 30 34 38 42 43 44 45 45 47 46 43 40 37 33 31 29 26 24 22 26 29 33 38 44 48 53 57 64 80 83 87 86 89 90 91 88 85
36 34 32 32 33 32 33 36 38 41 44 45 46 49 51 48 45 42 39 37 34 32 30 29 29 31 34 39 46 52 58 64 66 70 78 89 91 92 92 95 102 96 99
42 38 39 40 40 41 40 40 43 47 48 49 51 54 54 51 48 47 46 43 41 39 38 38 38 39 40 45 53 59 64 72 76 79 85 87 93 95 94 94 97 103 107
49 41 37 41 45 48 48 49 50 53 54 55 57 58 57 56 54 55 51 47 46 45 44 45 47 47 49 55 61 68 72 77 82 81 89 89 94 92 92 91 93 98 108
48 50 50 50 52 52 54 56 56 58 59 59 61 61 59 57 57 56 55 50 50 48 49 50 52 54 59 64 69 79 82 80 82 84 90 92 94 89 90 93 87 90 102
53 56 56 58 62 61 61 62 61 61 62 61 61 61 60 58 58 58 57 55 55 53 53 55 58 62 66 72 83 88 90 87 85 86 88 96 89 89 82 87 92 104 117
58 56 54 55 56 57 57 57 60 64 64 63 61 59 58 57 58 59 58 57 56 56 56 58 61 66 71 84 90 93 96 96 94 94 93 94 92 89 84 85 89 78 110
51 49 49 48 49 51 52 52 53 56 58 59 58 57 55 53 53 52 53 54 57 60 60 63 75 82 85 81 84 85 94 93 91 92 92 92 90 91 85 75 82 81 77
45 42 40 39 38 38 40 41 41 44 47 49 49 47 46 47 48 51 53 54 56 58 69 78 75 75 77 78 76 76 78 79 83 86 91 94 95 90 83 72 64 72 81
34 33 29 27 25 26 26 28 30 32 36 38 38 38 40 41 44 47 51 52 57 62 62 65 68 69 69 66 65 64 65 67 73 79 86 93 94 91 85 74 68 71 80
21 21 20 18 17 17 17 20 22 25 28 31 33 33 35 35 35 41 43 45 46 49 52 55 58 60 60 61 59 61 62 63 68 74 85 91 86 90 86 85 82 82 85
13 14 11 9 9 10 12 13 14 16 18 20 22 23 25 27 28 31 34 38 39 41 46 48 49 51 55 59 62 63 60 60 62 71 81 87 91 92 88 78 84 80 84
12 12 9 7 7 7 6 7 9 11 11 13 16 19 21 22 24 25 31 35 38 41 45 46 50 54 59 63 66 66 68 70 73 74 79 86 89 91 93 79 77 80 80
15 16 16 15 13 11 11 10 12 11 11 13 16 19 20 21 23 27 30 32 34 37 42 47 52 56 61 65 69 72 72 73 75 77 80 83 86 87 91 88 79 79 84
13 18 19 20 17 16 16 15 13 16 15 19 19 20 21 24 25 27 29 31 33 38 43 48 52 56 60 64 68 71 76 76 76 78 79 80 78 80 79 81 80 79 82
16 19 18 17 14 11 8 8 6 5 7 10 12 14 18 22 26 29 31 34 35 36 43 47 51 54 59 64 67 71 75 77 78 80 82 83 81 79 83 81 80 81 83
9 10 11 12 12 12 12 12 11 11 10 13 16 18 22 24 28 29 33 38 42 44 46 50 52 56 60 65 69 74 77 79 80 82 85 86 84 77 79 81 81 83 83
11 10 10 12 14 15 16 17 18 17 17 18 21 25 28 30 33 35 37 41 45 49 52 56 58 61 64 68 72 75 80 82 85 85 89 91 89 85 83 83 80 82 82
17 16 16 16 18 19 19 20 22 23 23 23 24 27 32 37 40 42 44 46 50 54 57 60 63 65 68 72 74 76 81 86 89 92 95 100 98 95 89 85 83 83 82
24 23 24 23 24 24 24 26 26 26 27 28 28 27 32 34 38 42 45 48 51 53 56 60 63 65 68 71 73 77 83 90 94 97 103 104 103 100 94 91 90 87 83
26 27 28 28 28 29 29 29 29 30 30 31 33 34 34 37 40 43 47 50 53 56 57 58 61 67 70 73 74 76 83 88 93 99 105 106 103 97 91 92 94 91 86
31 31 31 30 31 32 32 32 31 33 34 35 36 37 39 41 45 48 50 53 55 56 58 61 63 67 72 76 78 78 81 86 94 103 102 100 100 97 89 89 92 94 91
36 35 34 35 35 36 37 37 36 36 36 38 39 41 42 44 46 48 51 54 57 60 61 64 65 65 72 79 80 83 89 89 93 92 98 99 93 87 84 87 91 91 92
38 38 38 38 39 40 42 42 42 42 42 42 42 43 44 46 48 51 53 56 59 61 64 66 68 65 71 82 84 89 90 90 94 89 93 85 83 79 75 76 75 74 80
Wind_Direction_850mb
251 239 241 242 238 238 241 241 240 238 237 232 228 224 221 221 223 228 231 233 238 243 248 255 266 278 296 305 311 315 317 314 306 315 319 320 319 319 318 316 314 313 311
284 260 246 240 236 233 231 229 229 229 228 226 222 218 220 224 226 227 229 231 233 237 243 254 266 282 302 310 313 315 318 317 312 314 316 319 318 318 316 314 314 313 311
292 284 264 243 234 232 235 237 236 232 228 223 221 222 225 225 226 227 227 231 235 240 248 258 272 290 304 308 310 312 313 313 313 311 313 316 316 317 316 314 312 310 309
290 274 264 259 250 246 245 243 238 235 231 230 229 228 227 228 229 230 233 235 240 246 253 263 277 290 298 304 307 310 310 309 310 309 310 313 314 316 314 314 311 311 309
298 286 275 263 258 254 252 249 244 242 239 237 235 233 232 234 236 236 237 239 243 248 255 266 275 282 290 298 302 306 306 306 306 308 308 310 312 314 314 314 311 310 309
282 284 281 273 263 258 257 255 250 247 245 244 240 238 238 238 239 241 241 243 247 252 258 265 273 281 289 294 298 300 302 304 303 304 305 306 309 310 310 308 307 308 307
281 278 277 273 266 261 259 258 254 250 248 245 241 240 241 242 244 246 248 249 254 259 265 269 275 283 288 292 294 297 299 300 301 303 303 304 306 308 307 306 305 301 297
277 272 265 264 263 258 255 253 252 249 248 246 244 242 242 242 244 247 252 255 259 264 270 277 283 288 292 293 296 300 300 299 298 298 300 301 302 304 301 298 297 296 295
273 269 264 261 260 261 260 256 250 247 246 244 243 243 242 244 247 249 253 259 266 272 277 282 286 289 292 294 298 297 296 298 301 304 302 301 300 299 297 296 293 293 295
270 268 266 264 261 260 259 257 253 246 244 241 240 240 242 245 250 256 261 267 272 276 281 287 291 295 295 293 295 296 296 300 302 301 300 301 302 301 300 291 290 280 282
271 269 268 268 267 265 261 257 252 245 241 239 240 242 246 251 256 261 265 268 272 277 284 286 284 286 288 291 294 296 299 303 305 305 306 306 307 307 305 301 286 273 273
276 273 270 269 267 261 256 252 248 243 239 239 241 244 248 251 256 262 267 271 274 276 277 281 285 290 295 299 303 308 309 308 306 306 305 307 309 308 306 301 289 280 273
279 273 270 265 260 254 247 241 233 232 233 236 238 241 247 253 260 266 272 277 283 287 291 294 301 304 308 311 314 315 316 313 312 308 308 308 306 303 301 297 295 291 287
290 275 261 252 246 246 248 256 254 253 251 251 255 259 264 270 276 282 288 293 297 299 300 304 307 312 314 317 321 324 322 317 311 307 306 306 305 302 300 297 295 291 286
323 312 306 295 297 290 283 288 286 285 289 292 299 299 299 299 303 308 310 313 313 313 313 317 320 323 324 326 327 328 328 326 323 319 313 310 307 304 300 299 294 292 285
351 344 351 357 1 358 357 347 339 334 326 326 323 324 325 321 318 317 317 320 326 330 325 327 326 327 328 328 328 328 329 329 327 321 316 312 308 304 301 300 294 289 285
316 318 330 335 340 338 338 332 325 316 305 301 304 314 322 324 330 337 336 337 338 332 326 326 327 329 329 329 328 327 327 328 326 321 315 310 300 295 292 290 290 288 285
335 323 332 323 322 320 319 311 298 299 307 315 321 324 327 331 336 335 335 336 333 329 328 330 331 331 329 327 326 325 325 325 325 322 318 312 305 296 291 287 286 284 285
339 342 341 337 327 333 327 322 321 326 333 331 330 332 333 338 336 339 338 335 335 334 332 331 331 330 327 325 325 323 323 322 321 321 321 319 313 299 290 287 285 282 283
321 317 315 312 317 315 314 317 319 325 333 333 331 332 331 332 338 339 338 335 333 332 331 329 330 329 328 328 325 323 320 321 321 319 319 319 317 310 295 289 286 283 280
309 306 308 310 311 308 313 314 316 322 326 330 334 333 333 335 335 334 334 335 333 332 331 328 328 327 328 327 325 323 321 320 321 320 318 316 308 301 298 291 286 283 281
296 304 301 304 303 304 308 310 314 316 321 325 328 332 329 328 327 329 331 332 331 330 329 326 325 327 329 329 328 326 324 323 322 319 312 305 299 295 293 289 285 282 281
296 294 295 296 297 300 304 307 310 313 317 321 324 325 326 327 329 330 331 331 330 330 330 326 325 328 331 330 329 327 326 324 322 314 305 299 295 287 288 284 284 282 279
299 297 294 293 295 297 301 304 306 311 314 316 319 322 324 325 327 329 328 328 328 328 330 328 326 328 331 331 330 330 328 325 323 314 309 302 296 291 285 284 283 283 283
299 298 297 295 295 297 298 301 303 305 307 311 314 317 319 320 322 324 326 327 327 328 330 333 331 329 332 332 331 336 333 326 323 318 310 308 302 299 293 286 279 275 275
294 295 295 293 292 293 294 295 297 300 303 306 309 311 313 317 320 323 325 326 327 327 330 332 334 332 333 335 338 338 332 326 327 316 312 308 301 295 292 289 287 277 271